Tracking 30743 objects as of 23-Jun-2025
HD Live streaming from Space Station
objects crossing your sky now

OPS 1948

Track OPS 1948 now!
OPS 1948 is classified as:


NORAD ID: 11558
Int'l Code: 1979-086A
Perigee: 30,249.2 km
Apogee: 41,356.8 km
Inclination: 5.8 °
Period: 1,436.6 minutes
Semi major axis: 42173 km
RCS: Unknown
Launch date: October 1, 1979
Source: United States (US)
Launch site: AIR FORCE EASTERN TEST RANGE (AFETR)
Your satellite tracking list
Your tracking list is empty




NASA's NSSDC Master Catalog

Two Line Element Set (TLE):
1 11558U 79086A   25173.88563495 -.00000254  00000-0  00000-0 0  9998
2 11558   5.7984   8.9931 1316883  74.4860 297.9237  1.00238872 22604
Source of the keplerian elements: McCants